Find Starlink 37697

NORAD ID: 100272 Int'l Des: 2026-183 Owner: SPXS Country: US Constellation: starlink operational

当前视图

正在加载3D地球...

About Starlink 37697

Starlink 37697 (NORAD 100272) is a starlink constellation satellite launched Aug 11, 2026 by SPXS of US. with a mass of 575.00 kg.

即将过境

Passes for default location (London). Set your location on the main map for personalized predictions.

高度历史

Loading altitude history...

两行轨道根数

1 A0272U 26183A 26247.94361745 .00134046 00000-0 86362-3 0 9997
2 A0272 53.1587 334.5633 0001335 69.8494 290.2670 15.75270785 3850
Epoch: Sep 4, 2026 • Age: 17 hours

当前状态

高度 344.1 km
远地点 / 近地点 N/A
速度 7.70 km/s
星下点 -1.06°S, 114.71°E
发射日期 Aug 11, 2026
运行时间 24 days
类型 internet

技术详情

分类 Payload
质量 575.00 kg
干质量 530.00 kg
总质量 575.00 kg
长度 0.30 m
直径 4.10 m
跨度 29.00 m
形状 Box + pan
制造商 SPXS
平台类型 Starlink V2MO
阶段状态 In Orbit
所有者/国家 SPXS/US

Most Searched